| time (UTC) | temp C | wind direction | speed KPH | gust KPH | rain 1hr cm | rain 24hr cm | rain mn cm | humidity % | barometer mb |
| 20260505041402 | 22 | 269 | 0.0 | 6.4 | 0.00 | 0.00 | 0.00 | 66 | 1003.2 |
| 20260505040902 | 22 | 316 | 3.2 | 3.2 | 0.00 | 0.00 | 0.00 | 67 | 1002.9 |
| 20260505040402 | 22 | 280 | 3.2 | 3.2 | 0.00 | 0.00 | 0.00 | 67 | 1002.6 |
| 20260505035902 | 22 | 297 | 1.6 | 3.2 | 0.00 | 0.00 | 0.00 | 66 | 1002.8 |
| 20260505035624 | 22 | 228 | 0.0 | 3.2 | 0.00 | 0.00 | 0.00 | 66 | 1002.7 |
| 20260505034832 | 22 | 287 | 0.0 | 4.8 | 0.00 | 0.00 | 0.00 | 66 | 1002.7 |
| 20260505034332 | 22 | 236 | 1.6 | 3.2 | 0.00 | 0.00 | 0.00 | 66 | 1002.8 |
| 20260505033832 | 22 | 266 | 4.8 | 6.4 | 0.00 | 0.00 | 0.00 | 66 | 1002.7 |
| 20260505033332 | 22 | 283 | 0.0 | 6.4 | 0.00 | 0.00 | 0.00 | 65 | 1002.7 |
| 20260505032832 | 22 | 306 | 0.0 | 3.2 | 0.00 | 0.00 | 0.00 | 65 | 1002.9 |
| 20260505032304 | 22 | 305 | 0.0 | 3.2 | 0.00 | 0.00 | 0.00 | 64 | 1002.8 |
| 20260505031732 | 22 | 214 | 4.8 | 6.4 | 0.00 | 0.00 | 0.00 | 64 | 1002.7 |
| 20260505031232 | 22 | 293 | 0.0 | 3.2 | 0.00 | 0.00 | 0.00 | 63 | 1002.7 |
| 20260505030732 | 22 | 235 | 0.0 | 0.0 | 0.00 | 0.00 | 0.00 | 63 | 1002.4 |
| 20260505030232 | 22 | 269 | 0.0 | 3.2 | 0.00 | 0.00 | 0.00 | 63 | 1002.5 |
| 20260505025924 | 21 | 274 | 1.6 | 3.2 | 0.00 | 0.00 | 0.00 | 64 | 1002.6 |
| 20260505025202 | 20 | 266 | 3.2 | 4.8 | 0.00 | 0.00 | 0.00 | 66 | 1002.2 |
| 20260505024702 | 20 | 50 | 0.0 | 0.0 | 0.00 | 0.00 | 0.00 | 65 | 1002.5 |
| 20260505024202 | 20 | 55 | 0.0 | 0.0 | 0.00 | 0.00 | 0.00 | 65 | 1002.2 |
| 20260505023632 | 20 | 37 | 0.0 | 1.6 | 0.00 | 0.00 | 0.00 | 64 | 1002.1 |
| 20260505023132 | 20 | 22 | 0.0 | 0.0 | 0.00 | 0.00 | 0.00 | 64 | 1002.2 |
| 20260505022602 | 20 | 50 | 0.0 | 0.0 | 0.00 | 0.00 | 0.00 | 63 | 1002.2 |
| 20260505022102 | 20 | 44 | 0.0 | 0.0 | 0.00 | 0.00 | 0.00 | 63 | 1002.0 |
| 20260505021602 | 21 | 13 | 0.0 | 1.6 | 0.00 | 0.00 | 0.00 | 63 | 1001.7 |
| 20260505021102 | 21 | 55 | 0.0 | 1.6 | 0.00 | 0.00 | 0.00 | 62 | 1001.9 |
| 20260505021017 | 21 | 50 | 0.0 | 0.0 | 0.00 | 0.00 | 0.00 | 61 | 1001.7 |
| 20260505020032 | 21 | 44 | 0.0 | 0.0 | 0.00 | 0.00 | 0.00 | 61 | 1001.7 |
| 20260505015532 | 21 | 32 | 0.0 | 0.0 | 0.00 | 0.00 | 0.00 | 60 | 1001.7 |
| 20260505015032 | 22 | 242 | 0.0 | 0.0 | 0.00 | 0.00 | 0.00 | 59 | 1001.8 |
| 20260505014502 | 22 | 242 | 0.0 | 0.0 | 0.00 | 0.00 | 0.00 | 58 | 1001.5 |
| 20260505014224 | 22 | 242 | 0.0 | 0.0 | 0.00 | 0.00 | 0.00 | 57 | 1001.6 |
| 20260505013502 | 22 | 242 | 0.0 | 0.0 | 0.00 | 0.00 | 0.00 | 57 | 1001.3 |
| 20260505012932 | 22 | 242 | 0.0 | 0.0 | 0.00 | 0.00 | 0.00 | 56 | 1001.3 |
| 20260505012432 | 22 | 224 | 0.0 | 0.0 | 0.00 | 0.00 | 0.00 | 56 | 1001.4 |
| 20260505011932 | 23 | 24 | 0.0 | 0.0 | 0.00 | 0.00 | 0.00 | 56 | 1001.5 |
| 20260505011402 | 23 | 315 | 0.0 | 0.0 | 0.00 | 0.00 | 0.00 | 54 | 1001.4 |
| 20260505010902 | 23 | 315 | 0.0 | 0.0 | 0.00 | 0.00 | 0.00 | 53 | 1001.3 |
| 20260505010621 | 23 | 333 | 0.0 | 0.0 | 0.00 | 0.00 | 0.00 | 53 | 1001.2 |
| 20260505005902 | 24 | 25 | 0.0 | 0.0 | 0.00 | 0.00 | 0.00 | 52 | 1001.2 |
| 20260505005623 | 25 | 315 | 0.0 | 0.0 | 0.00 | 0.00 | 0.00 | 50 | 1001.2 |
| 20260505004902 | 25 | 315 | 0.0 | 0.0 | 0.00 | 0.00 | 0.00 | 49 | 1001.0 |
| 20260505004846 | 25 | 315 | 0.0 | 0.0 | 0.00 | 0.00 | 0.00 | 48 | 1001.0 |
| 20260505003902 | 25 | 315 | 0.0 | 0.0 | 0.00 | 0.00 | 0.00 | 47 | 1000.8 |
| 20260505003332 | 26 | 242 | 0.0 | 1.6 | 0.00 | 0.00 | 0.00 | 46 | 1001.0 |
| 20260505002832 | 26 | 172 | 0.0 | 1.6 | 0.00 | 0.00 | 0.00 | 46 | 1000.8 |
| 20260505002304 | 26 | 309 | 0.0 | 1.6 | 0.00 | 0.00 | 0.00 | 46 | 1000.7 |
| 20260505002024 | 26 | 310 | 0.0 | 1.6 | 0.00 | 0.00 | 0.00 | 46 | 1000.8 |
| 20260505001232 | 26 | 269 | 0.0 | 3.2 | 0.00 | 0.00 | 0.00 | 45 | 1000.7 |
| 20260505000732 | 26 | 251 | 1.6 | 1.6 | 0.00 | 0.00 | 0.00 | 45 | 1001.0 |
| 20260505000233 | 26 | 290 | 0.0 | 3.2 | 0.00 | 0.00 | 0.00 | 45 | 1001.0 |
| 20260504235923 | 26 | 224 | 1.6 | 4.8 | 0.00 | 0.00 | 0.00 | 44 | 1001.0 |
| 20260504235202 | 26 | 333 | 0.0 | 1.6 | 0.00 | 0.00 | 0.00 | 44 | 1001.0 |
| 20260504234921 | 26 | 240 | 0.0 | 3.2 | 0.00 | 0.00 | 0.00 | 44 | 1001.0 |
| 20260504234202 | 26 | 186 | 0.0 | 3.2 | 0.00 | 0.00 | 0.00 | 43 | 1000.8 |
| 20260504233632 | 26 | 252 | 0.0 | 6.4 | 0.00 | 0.00 | 0.00 | 43 | 1001.1 |
| 20260504233132 | 26 | 288 | 0.0 | 6.4 | 0.00 | 0.00 | 0.00 | 43 | 1001.1 |
| 20260504232602 | 26 | 295 | 0.0 | 4.8 | 0.00 | 0.00 | 0.00 | 42 | 1001.2 |
| 20260504232102 | 27 | 279 | 1.6 | 3.2 | 0.00 | 0.00 | 0.00 | 42 | 1000.9 |
| 20260504231602 | 27 | 230 | 3.2 | 6.4 | 0.00 | 0.00 | 0.00 | 41 | 1000.9 |
| 20260504231102 | 27 | 268 | 1.6 | 4.8 | 0.00 | 0.00 | 0.00 | 42 | 1001.1 |
| 20260504230532 | 27 | 269 | 3.2 | 4.8 | 0.00 | 0.00 | 0.00 | 41 | 1001.2 |
| 20260504230251 | 27 | 267 | 0.0 | 4.8 | 0.00 | 0.00 | 0.00 | 41 | 1001.2 |
| 20260504225532 | 27 | 304 | 3.2 | 3.2 | 0.00 | 0.00 | 0.00 | 41 | 1001.2 |
| 20260504225002 | 27 | 235 | 3.2 | 6.4 | 0.00 | 0.00 | 0.00 | 40 | 1001.1 |
| 20260504224721 | 27 | 316 | 0.0 | 4.8 | 0.00 | 0.00 | 0.00 | 40 | 1001.1 |
| 20260504224002 | 27 | 319 | 0.0 | 6.4 | 0.00 | 0.00 | 0.00 | 41 | 1001.3 |
| 20260504223502 | 27 | 250 | 0.0 | 4.8 | 0.00 | 0.00 | 0.00 | 40 | 1001.1 |
| 20260504222932 | 27 | 262 | 1.6 | 3.2 | 0.00 | 0.00 | 0.00 | 40 | 1001.1 |
| 20260504222402 | 27 | 313 | 0.0 | 3.2 | 0.00 | 0.00 | 0.00 | 41 | 1001.2 |
| 20260504221902 | 27 | 231 | 6.4 | 8.0 | 0.00 | 0.00 | 0.00 | 39 | 1001.2 |
| 20260504221332 | 27 | 286 | 4.8 | 4.8 | 0.00 | 0.00 | 0.00 | 41 | 1001.4 |
| 20260504220802 | 27 | 249 | 3.2 | 6.4 | 0.00 | 0.00 | 0.00 | 40 | 1001.4 |
| 20260504220522 | 27 | 276 | 3.2 | 4.8 | 0.00 | 0.00 | 0.00 | 41 | 1001.2 |
| 20260504215802 | 27 | 210 | 3.2 | 9.7 | 0.00 | 0.00 | 0.00 | 41 | 1001.4 |
| 20260504215304 | 27 | 258 | 1.6 | 8.0 | 0.00 | 0.00 | 0.00 | 43 | 1001.1 |
| 20260504214802 | 27 | 265 | 3.2 | 9.7 | 0.00 | 0.00 | 0.00 | 43 | 1001.7 |
| 20260504214748 | 27 | 250 | 3.2 | 3.2 | 0.00 | 0.00 | 0.00 | 43 | 1001.5 |
| 20260504213951 | 27 | 283 | 1.6 | 6.4 | 0.00 | 0.00 | 0.00 | 42 | 1001.8 |
| 20260504213232 | 27 | 249 | 6.4 | 6.4 | 0.00 | 0.00 | 0.00 | 42 | 1001.7 |
| 20260504212702 | 27 | 258 | 3.2 | 11.3 | 0.00 | 0.00 | 0.00 | 42 | 1001.9 |
| 20260504212202 | 27 | 252 | 1.6 | 8.0 | 0.00 | 0.00 | 0.00 | 42 | 1001.9 |
| 20260504211702 | 27 | 293 | 8.0 | 9.7 | 0.00 | 0.00 | 0.00 | 41 | 1001.8 |
| 20260504211202 | 27 | 261 | 3.2 | 4.8 | 0.00 | 0.00 | 0.00 | 42 | 1001.6 |
| 20260504210702 | 28 | 254 | 1.6 | 3.2 | 0.00 | 0.00 | 0.00 | 41 | 1001.7 |
| 20260504210202 | 28 | 223 | 0.0 | 8.0 | 0.00 | 0.00 | 0.00 | 41 | 1001.9 |
| 20260504205702 | 28 | 242 | 3.2 | 8.0 | 0.00 | 0.00 | 0.00 | 40 | 1001.9 |
| 20260504205132 | 28 | 276 | 1.6 | 4.8 | 0.00 | 0.00 | 0.00 | 42 | 1002.0 |
| 20260504204632 | 28 | 258 | 3.2 | 8.0 | 0.00 | 0.00 | 0.00 | 40 | 1001.8 |
| 20260504204102 | 28 | 276 | 1.6 | 8.0 | 0.00 | 0.00 | 0.00 | 39 | 1001.9 |
| 20260504203602 | 28 | 249 | 8.0 | 8.0 | 0.00 | 0.00 | 0.00 | 38 | 1001.9 |
| 20260504203321 | 28 | 263 | 3.2 | 6.4 | 0.00 | 0.00 | 0.00 | 39 | 1002.3 |
| 20260504202532 | 28 | 240 | 4.8 | 6.4 | 0.00 | 0.00 | 0.00 | 40 | 1002.2 |
| 20260504202032 | 28 | 285 | 4.8 | 8.0 | 0.00 | 0.00 | 0.00 | 39 | 1002.0 |
| 20260504201532 | 29 | 252 | 4.8 | 8.0 | 0.00 | 0.00 | 0.00 | 39 | 1002.2 |
| 20260504201032 | 28 | 283 | 3.2 | 6.4 | 0.00 | 0.00 | 0.00 | 41 | 1001.9 |
| 20260504201018 | 28 | 260 | 3.2 | 8.0 | 0.00 | 0.00 | 0.00 | 41 | 1002.3 |
| 20260504200032 | 28 | 237 | 6.4 | 6.4 | 0.00 | 0.00 | 0.00 | 41 | 1002.1 |
| 20260504195502 | 28 | 252 | 4.8 | 6.4 | 0.00 | 0.00 | 0.00 | 41 | 1002.2 |
| 20260504194932 | 28 | 262 | 3.2 | 9.7 | 0.00 | 0.00 | 0.00 | 38 | 1002.0 |
| 20260504194432 | 28 | 271 | 1.6 | 4.8 | 0.00 | 0.00 | 0.00 | 40 | 1002.0 |
| 20260504193902 | 28 | 225 | 6.4 | 6.4 | 0.00 | 0.00 | 0.00 | 39 | 1002.2 |
| 20260504193332 | 28 | 264 | 3.2 | 4.8 | 0.00 | 0.00 | 0.00 | 38 | 1002.4 |
| 20260504192832 | 28 | 286 | 6.4 | 6.4 | 0.00 | 0.00 | 0.00 | 40 | 1002.1 |
| 20260504192304 | 27 | 179 | 3.2 | 6.4 | 0.00 | 0.00 | 0.00 | 38 | 1002.5 |
| 20260504191803 | 27 | 295 | 0.0 | 6.4 | 0.00 | 0.00 | 0.00 | 41 | 1002.4 |
| 20260504191303 | 27 | 287 | 4.8 | 8.0 | 0.00 | 0.00 | 0.00 | 41 | 1002.4 |
| 20260504190803 | 27 | 230 | 4.8 | 8.0 | 0.00 | 0.00 | 0.00 | 41 | 1002.2 |
| 20260504190303 | 27 | 272 | 3.2 | 8.0 | 0.00 | 0.00 | 0.00 | 41 | 1002.4 |
| 20260504185803 | 27 | 297 | 0.0 | 8.0 | 0.00 | 0.00 | 0.00 | 43 | 1002.6 |
| 20260504185455 | 27 | 277 | 0.0 | 8.0 | 0.00 | 0.00 | 0.00 | 40 | 1002.7 |
| 20260504184232 | 26 | 233 | 0.0 | 9.7 | 0.00 | 0.00 | 0.00 | 42 | 1002.5 |
| 20260504184219 | 26 | 243 | 6.4 | 6.4 | 0.00 | 0.00 | 0.00 | 42 | 1002.6 |
| 20260504183202 | 26 | 277 | 4.8 | 8.0 | 0.00 | 0.00 | 0.00 | 40 | 1002.7 |
| 20260504182702 | 26 | 248 | 3.2 | 9.7 | 0.00 | 0.00 | 0.00 | 41 | 1002.9 |
| 20260504182132 | 26 | 216 | 0.0 | 4.8 | 0.00 | 0.00 | 0.00 | 45 | 1002.7 |
| 20260504181632 | 26 | 232 | 6.4 | 8.0 | 0.00 | 0.00 | 0.00 | 42 | 1003.2 |
| 20260504181132 | 26 | 257 | 4.8 | 6.4 | 0.00 | 0.00 | 0.00 | 43 | 1002.9 |
| 20260504180602 | 26 | 231 | 3.2 | 6.4 | 0.00 | 0.00 | 0.00 | 43 | 1003.0 |
| 20260504175750 | 26 | 254 | 3.2 | 4.8 | 0.00 | 0.00 | 0.00 | 43 | 1003.0 |
| 20260504175032 | 25 | 249 | 3.2 | 6.4 | 0.00 | 0.00 | 0.00 | 44 | 1003.1 |
| 20260504174502 | 26 | 249 | 4.8 | 8.0 | 0.00 | 0.00 | 0.00 | 42 | 1003.2 |
| 20260504174002 | 26 | 213 | 3.2 | 6.4 | 0.00 | 0.00 | 0.00 | 42 | 1003.1 |
| 20260504173722 | 25 | 286 | 1.6 | 8.0 | 0.00 | 0.00 | 0.00 | 42 | 1003.2 |
| 20260504173002 | 25 | 188 | 4.8 | 9.7 | 0.00 | 0.00 | 0.00 | 48 | 1003.4 |
| 20260504172432 | 25 | 274 | 3.2 | 8.0 | 0.00 | 0.00 | 0.00 | 43 | 1003.4 |
| 20260504171932 | 25 | 267 | 1.6 | 12.9 | 0.00 | 0.00 | 0.00 | 44 | 1003.5 |
| 20260504171432 | 25 | 257 | 3.2 | 6.4 | 0.00 | 0.00 | 0.00 | 43 | 1003.6 |
| 20260504160202 | 23 | 257 | 4.8 | 6.4 | 0.00 | 0.00 | 0.00 | 44 | 1003.4 |
| 20260504151032 | 22 | 242 | 4.8 | 11.3 | 0.00 | 0.00 | 0.00 | 47 | 1003.8 |
| 20260504150532 | 22 | 264 | 8.0 | 9.7 | 0.00 | 0.00 | 0.00 | 48 | 1003.9 |
| 20260504141232 | 19 | 222 | 4.8 | 6.4 | 0.00 | 0.00 | 0.00 | 54 | 1004.0 |
| 20260504140732 | 19 | 146 | 3.2 | 6.4 | 0.00 | 0.00 | 0.00 | 54 | 1004.2 |
| 20260504140232 | 19 | 327 | 0.0 | 3.2 | 0.00 | 0.00 | 0.00 | 54 | 1004.1 |
| 20260504130602 | 18 | 188 | 0.0 | 4.8 | 0.00 | 0.00 | 0.00 | 55 | 1003.8 |
| 20260504110702 | 17 | 314 | 3.2 | 6.4 | 0.00 | 0.00 | 0.00 | 53 | 1004.0 |
| 20260504110202 | 17 | 190 | 1.6 | 4.8 | 0.00 | 0.00 | 0.00 | 53 | 1004.0 |
| 20260504100602 | 18 | 257 | 1.6 | 3.2 | 0.00 | 0.00 | 0.00 | 50 | 1004.3 |
| 20260504081402 | 18 | 352 | 3.2 | 4.8 | 0.00 | 0.00 | 0.00 | 52 | 1004.7 |
| 20260504080833 | 18 | 62 | 0.0 | 1.6 | 0.00 | 0.00 | 0.00 | 52 | 1004.6 |
| 20260504080332 | 17 | 253 | 3.2 | 4.8 | 0.00 | 0.00 | 0.00 | 52 | 1004.7 |
| 20260504050502 | 18 | 250 | 0.0 | 3.2 | 0.00 | 0.00 | 0.00 | 49 | 1006.9 |
| 20260504050002 | 18 | 154 | 0.0 | 0.0 | 0.00 | 0.00 | 0.00 | 52 | 1006.8 |
| 20260504045432 | 17 | 7 | 1.6 | 1.6 | 0.00 | 0.00 | 0.00 | 54 | 1006.9 |
| 20260504044902 | 17 | 348 | 0.0 | 1.6 | 0.00 | 0.00 | 0.00 | 59 | 1006.9 |
| 20260504044402 | 17 | 142 | 0.0 | 0.0 | 0.00 | 0.00 | 0.00 | 57 | 1007.0 |
| 20260504043902 | 17 | 315 | 0.0 | 0.0 | 0.00 | 0.00 | 0.00 | 56 | 1006.9 |
| 20260504043403 | 18 | 37 | 0.0 | 1.6 | 0.00 | 0.00 | 0.00 | 55 | 1007.0 |
| 20260504042902 | 18 | 79 | 0.0 | 1.6 | 0.00 | 0.00 | 0.00 | 55 | 1006.9 |